When you browse on this site, cookies collect data to enhance your experience and personalize the content and advertising you see.
Visit our Privacy Policy to learn more. By continuing to use the site, you agree to this use of cookies and data.
  • In Switzerland
  • List of Countries
  • For 7 days
  • Water Temperature
  • Weather Map
  • Weather Widgets
  • user-avatar
    Login

    Hourly Weather Lyman (Krasnyj Liman)

    Today, 24 February, Monday

    Time Temperature Precipitation Wind Pressure Humidity
    00:00 +1°C° 0.5 mm 6 mps 747 mmHg 94%
    01:00 +1°C° 0.2 mm 6 mps 746 mmHg 94%
    02:00 +1°C° 0.2 mm 5 mps 746 mmHg 94%
    03:00 +1°C° 0 mm 5 mps 745 mmHg 92%
    04:00 +1°C° 0.2 mm 5 mps 744 mmHg 94%
    05:00 +1°C° 0.2 mm 4 mps 744 mmHg 95%
    06:00 +1°C° 0.2 mm 4 mps 743 mmHg 97%
    07:00 +1°C° 0.4 mm 5 mps 742 mmHg 96%
    08:00 +1°C° 0.4 mm 6 mps 741 mmHg 95%
    09:00 +1°C° 0 mm 6 mps 741 mmHg 94%
    10:00 0°C° 0.1 mm 7 mps 740 mmHg 94%
    11:00 0°C° 0.1 mm 7 mps 739 mmHg 93%
    12:00 +1°C° 0.1 mm 8 mps 738 mmHg 93%
    13:00 +2°C° 0.2 mm 7 mps 737 mmHg 93%
    14:00 +2°C° 0.2 mm 7 mps 735 mmHg 93%
    15:00 +2°C° 0.2 mm 6 mps 734 mmHg 92%
    16:00 +2°C° 0.6 mm 5 mps 733 mmHg 93%
    17:00 +3°C° 0.6 mm 4 mps 732 mmHg 94%
    18:00 +3°C° 0.6 mm 3 mps 731 mmHg 95%
    19:00 +3°C° 1 mm 3 mps 731 mmHg 96%
    20:00 +4°C° 1 mm 2 mps 731 mmHg 97%
    21:00 +3°C° 1 mm 2 mps 731 mmHg 98%
    22:00 +2°C° 0.8 mm 3 mps 731 mmHg 97%
    23:00 +1°C° 0.8 mm 4 mps 731 mmHg 97%

    Tomorrow, 25 February, Tuesday

    Time Temperature Precipitation Wind Pressure Humidity
    00:00 +1°C° 0.8 mm 6 mps 732 mmHg 96%
    01:00 -1°C° 0.5 mm 8 mps 733 mmHg 96%
    02:00 -2°C° 0.5 mm 10 mps 734 mmHg 96%
    03:00 -3°C° 0.5 mm 12 mps 735 mmHg 95%
    04:00 -3°C° 0.2 mm 12 mps 736 mmHg 90%
    05:00 -3°C° 0.2 mm 11 mps 738 mmHg 85%
    06:00 -3°C° 0.2 mm 11 mps 739 mmHg 80%
    07:00 -3°C° 0 mm 10 mps 741 mmHg 79%
    08:00 -3°C° 0 mm 10 mps 742 mmHg 79%
    09:00 -3°C° 0 mm 9 mps 744 mmHg 78%
    10:00 -1°C° 0 mm 9 mps 745 mmHg 72%
    11:00 -1°C° 0 mm 8 mps 746 mmHg 66%
    12:00 0°C° 0 mm 8 mps 747 mmHg 61%
    13:00 0°C° 0 mm 8 mps 747 mmHg 59%
    14:00 +2°C° 0 mm 7 mps 747 mmHg 58%
    15:00 +2°C° 0 mm 7 mps 748 mmHg 57%
    16:00 +2°C° 0 mm 5 mps 748 mmHg 61%
    17:00 +1°C° 0 mm 4 mps 748 mmHg 65%
    18:00 +1°C° 0 mm 3 mps 748 mmHg 68%
    19:00 +1°C° 0 mm 3 mps 749 mmHg 70%
    20:00 0°C° 0 mm 3 mps 749 mmHg 72%
    21:00 0°C° 0 mm 3 mps 749 mmHg 74%
    22:00 0°C° 0 mm 3 mps 749 mmHg 74%
    23:00 0°C° 0 mm 3 mps 749 mmHg 75%

    Day after tomorrow, 26 February, Wednesday

    Time Temperature Precipitation Wind Pressure Humidity
    00:00 0°C° 0 mm 3 mps 748 mmHg 75%
    01:00 -1°C° 0 mm 4 mps 748 mmHg 78%
    02:00 -1°C° 0 mm 4 mps 748 mmHg 80%
    03:00 -1°C° 0 mm 4 mps 748 mmHg 83%
    04:00 -1°C° 0 mm 4 mps 747 mmHg 85%
    05:00 -1°C° 0 mm 5 mps 747 mmHg 88%
    06:00 -1°C° 0 mm 5 mps 746 mmHg 90%
    07:00 0°C° 0 mm 5 mps 746 mmHg 86%
    08:00 -1°C° 0 mm 6 mps 746 mmHg 82%
    09:00 0°C° 0 mm 7 mps 746 mmHg 78%
    10:00 +2°C° 0 mm 7 mps 746 mmHg 72%
    11:00 +4°C° 0 mm 7 mps 745 mmHg 67%
    12:00 +5°C° 0 mm 8 mps 745 mmHg 61%
    13:00 +6°C° 0 mm 8 mps 744 mmHg 60%
    14:00 +6°C° 0 mm 8 mps 744 mmHg 58%
    15:00 +7°C° 0 mm 8 mps 744 mmHg 57%
    16:00 +6°C° 0 mm 8 mps 743 mmHg 60%
    17:00 +5°C° 0 mm 7 mps 743 mmHg 64%
    18:00 +5°C° 0 mm 6 mps 743 mmHg 67%
    19:00 +4°C° 0 mm 7 mps 743 mmHg 70%
    20:00 +4°C° 0 mm 7 mps 743 mmHg 73%
    21:00 +3°C° 0 mm 7 mps 743 mmHg 76%
    22:00 +3°C° 0 mm 7 mps 742 mmHg 77%
    23:00 +3°C° 0 mm 7 mps 742 mmHg 79%

    27 February, Thursday

    Time Temperature Precipitation Wind Pressure Humidity
    00:00 +2°C° 0 mm 7 mps 742 mmHg 80%
    01:00 +2°C° 0 mm 6 mps 742 mmHg 81%
    02:00 +2°C° 0 mm 6 mps 742 mmHg 82%
    03:00 +2°C° 0 mm 6 mps 741 mmHg 82%
    04:00 +2°C° 0 mm 5 mps 741 mmHg 84%
    05:00 +2°C° 0 mm 5 mps 741 mmHg 85%
    06:00 +2°C° 0 mm 5 mps 740 mmHg 86%
    07:00 +3°C° 0 mm 6 mps 740 mmHg 84%
    08:00 +3°C° 0 mm 6 mps 741 mmHg 82%
    09:00 +4°C° 0 mm 6 mps 741 mmHg 80%
    10:00 +7°C° 0 mm 6 mps 740 mmHg 77%
    11:00 +9°C° 0 mm 7 mps 740 mmHg 74%
    12:00 +10°C° 0 mm 8 mps 740 mmHg 71%
    13:00 +10°C° 0 mm 8 mps 740 mmHg 70%
    14:00 +11°C° 0 mm 7 mps 739 mmHg 70%
    15:00 +11°C° 0 mm 7 mps 739 mmHg 69%
    16:00 +10°C° 0 mm 6 mps 739 mmHg 74%
    17:00 +10°C° 0 mm 5 mps 739 mmHg 78%
    18:00 +9°C° 0 mm 5 mps 739 mmHg 82%
    19:00 +9°C° 0 mm 5 mps 739 mmHg 82%
    20:00 +9°C° 0 mm 6 mps 739 mmHg 82%
    21:00 +9°C° 0 mm 6 mps 739 mmHg 83%
    22:00 +9°C° 0.1 mm 6 mps 739 mmHg 82%
    23:00 +9°C° 0.1 mm 6 mps 739 mmHg 81%

    28 February, Friday

    Time Temperature Precipitation Wind Pressure Humidity
    00:00 +8°C° 0.1 mm 6 mps 739 mmHg 81%
    01:00 +8°C° 0.2 mm 6 mps 738 mmHg 81%
    02:00 +8°C° 0.2 mm 5 mps 738 mmHg 80%
    03:00 +7°C° 0.2 mm 5 mps 737 mmHg 80%
    04:00 +7°C° 0.3 mm 6 mps 737 mmHg 82%
    05:00 +5°C° 0.3 mm 6 mps 736 mmHg 84%
    06:00 +5°C° 0.3 mm 6 mps 735 mmHg 86%
    07:00 +5°C° 0.1 mm 7 mps 735 mmHg 85%
    08:00 +6°C° 0.1 mm 8 mps 734 mmHg 85%
    09:00 +6°C° 0.1 mm 9 mps 734 mmHg 84%
    10:00 +5°C° 0 mm 10 mps 734 mmHg 78%
    11:00 +4°C° 0 mm 11 mps 734 mmHg 71%
    12:00 +3°C° 0 mm 12 mps 735 mmHg 64%
    13:00 +2°C° 0.1 mm 12 mps 736 mmHg 69%
    14:00 0°C° 0.1 mm 12 mps 737 mmHg 73%
    15:00 -2°C° 0.1 mm 12 mps 739 mmHg 77%
    16:00 -2°C° 0.1 mm 11 mps 740 mmHg 72%
    17:00 -2°C° 0.1 mm 10 mps 742 mmHg 67%
    18:00 -1°C° 0.1 mm 9 mps 743 mmHg 61%
    19:00 -2°C° 0 mm 8 mps 744 mmHg 65%
    20:00 -2°C° 0 mm 6 mps 745 mmHg 68%
    21:00 -2°C° 0 mm 5 mps 746 mmHg 71%
    22:00 -2°C° 0.1 mm 5 mps 746 mmHg 73%
    23:00 -2°C° 0.1 mm 5 mps 747 mmHg 75%

    29 February, Saturday

    Time Temperature Precipitation Wind Pressure Humidity
    00:00 -2°C° 0.1 mm 5 mps 747 mmHg 78%
    01:00 -2°C° 0 mm 5 mps 747 mmHg 76%
    02:00 -2°C° 0 mm 5 mps 747 mmHg 74%
    03:00 -2°C° 0 mm 5 mps 747 mmHg 72%
    04:00 -2°C° 0 mm 4 mps 747 mmHg 75%
    05:00 -2°C° 0 mm 4 mps 747 mmHg 79%
    06:00 -2°C° 0 mm 4 mps 747 mmHg 82%
    07:00 -2°C° 0.1 mm 4 mps 747 mmHg 82%
    08:00 -2°C° 0.1 mm 4 mps 747 mmHg 83%
    09:00 0°C° 0.1 mm 3 mps 747 mmHg 84%
    10:00 0°C° 0.5 mm 3 mps 747 mmHg 86%
    11:00 0°C° 0.5 mm 3 mps 747 mmHg 87%
    12:00 0°C° 0.5 mm 3 mps 747 mmHg 89%
    13:00 0°C° 1.1 mm 3 mps 747 mmHg 84%
    14:00 0°C° 1.1 mm 3 mps 747 mmHg 79%
    15:00 0°C° 1.1 mm 4 mps 746 mmHg 75%
    16:00 -1°C° 0 mm 4 mps 747 mmHg 74%
    17:00 -1°C° 0 mm 4 mps 747 mmHg 73%
    18:00 -2°C° 0 mm 4 mps 747 mmHg 72%
    19:00 -1°C° 0 mm 3 mps 748 mmHg 73%
    20:00 -2°C° 0 mm 3 mps 749 mmHg 74%
    21:00 -4°C° 0 mm 3 mps 749 mmHg 75%
    22:00 -4°C° 0 mm 3 mps 750 mmHg 76%
    23:00 -4°C° 0 mm 3 mps 750 mmHg 76%
    Show more